Location: Unspecified
(42.3650°N, 71.1030°W)
Time: 09:12:30
(UTC+00:00)

A-11 Canister half - Pass Details

Date: 26 June 2024
Orbit: 1524 x 1684 km, 47.3° (Epoch: 18 July)

Event Time Altitude Azimuth Distance (km) Brightness Sun altitude
Rises 00:46:09 0° 290° (WNW) 4,675 13.3 -4.0°
Reaches altitude 10° 00:50:21 10° 273° (W) 3,696 12.0 -4.6°
Maximum altitude 00:56:09 19° 234° (SW) 3,083 10.8 -5.4°
Drops below altitude 10° 01:02:01 10° 194° (SSW) 3,733 10.8 -6.3°
Sets 01:06:21 0° 178° (S) 4,740 11.2 -6.9°
